Location: El Abasto
(10.3790°N, 67.5897°W)
Time: 19:22:54
(UTC+00:00)

Milstar 3 - Pass Details

Date: 19 May 2024
Orbit: 1098 x 5147 km, 28.2° (Epoch: 12 June)

Event Time Altitude Azimuth Distance (km) Brightness Sun altitude
Rises 23:11:09 0° 296° (WNW) 3,907 8.3 -6.6°
Reaches altitude 10° 23:13:39 10° 295° (WNW) 2,942 6.8 -7.2°
Maximum altitude 23:20:18 81° 208° (SSW) 1,262 3.1 -8.7°
Enters shadow 23:29:14 12° 122° (ESE) 3,915 5.0 -10.7°
